Regional Weather Roundup
Issued by NWS

Home | Current Version | Previous Version | Graphics & Text | Print | Product List | Glossary On
Versions: 1 2 3 4 5 6 7 8 9 10 11 12 13 14 15 16 17 18 19 20 21 22 23 24 25 26 27 28 29 30 31 32 33 34 35 36 37 38 39 40 41 42 43 44 45 46 47 48 49 50
000
ASUS43 KLMK 250710
RWRKY
KENTUCKY REGIONAL WEATHER ROUNDUP
NATIONAL WEATHER SERVICE LOUISVILLE KY
300 AM EDT SAT APR 25 2015

NOTE "FAIR" INDICATES FEW OR NO CLOUDS BELOW 12,000 FEET
WITH NO SIGNIFICANT WEATHER AND/OR OBSTRUCTIONS TO VISIBILITY.

KYZ001>023-026-027-061>063-070>075-250800-
WESTERN AND SOUTH CENTRAL KENTUCKY

CITY           SKY/WX    TMP DP  RH WIND       PRES   REMARKS
PADUCAH        CLOUDY    57  52  83 E5        29.74F
HENDERSON      CLOUDY    55  39  54 E6        29.77F
OWENSBORO      CLOUDY    58  42  55 SE8       29.79F
HOPKINSVILLE   DRIZZLE   57  54  89 S13G18    29.74F
BOWLING GREEN  CLOUDY    58  45  62 CALM      29.80F
GLASGOW        CLOUDY    56  42  58 CALM      29.81S
$$

KYZ024-025-028>034-038-045-046-053-250800-
NORTH CENTRAL KENTUCKY

CITY           SKY/WX    TMP DP  RH WIND       PRES   REMARKS
LOUISVILLE/SDF CLOUDY    56  39  53 SE5       29.81F
LOUISVILLE/LOU CLOUDY    56  37  49 E5        29.83F
FORT KNOX      CLOUDY    54  41  62 E5        29.80F
$$

KYZ035>037-039>044-047>052-055>060-089>105-250800-
NORTHEAST KENTUCKY

CITY           SKY/WX    TMP DP  RH WIND       PRES   REMARKS
LEXINGTON      CLOUDY    55  37  50 CALM      29.84F
COVINGTON      CLOUDY    52  37  56 E3        29.88S
FRANKFORT      CLOUDY    53  41  63 E7        29.83F
$$

KYZ054-064>069-076>088-106>120-250800-
SOUTHEAST KENTUCKY

CITY           SKY/WX    TMP DP  RH WIND       PRES   REMARKS
JACKSON        LGT RAIN  52  31  44 VRB7      29.89R
LONDON         CLOUDY    58  36  43 CALM      29.85F
SOMERSET       CLOUDY    55  37  50 CALM      29.85F
MIDDLESBORO    CLOUDY    55  43  63 CALM      29.89F
MONTICELLO     CLOUDY    58  37  45 S3        29.85F
$$



USA.gov is the U.S. government's official web portal to all federal, state and local government web resources and services.